Location: Sungai Bunut
(2.6333°N, 113.7333°E)
Time: 09:56:26
(UTC+00:00)

Transit 2A Rocket - Pass Details

Date: 08 December 2023
Orbit: 590 x 905 km, 66.7° (Epoch: 01 March)

Event Time Altitude Azimuth Distance (km) Brightness Sun altitude
Rises 23:24:32 0° 327° (NNW) 2,999 7.6 14.4°
Reaches altitude 10° 23:26:50 10° 321° (NW) 2,133 6.8 15.0°
Maximum altitude 23:31:27 43° 249° (WSW) 1,018 5.5 16.0°
Drops below altitude 10° 23:36:30 10° 178° (S) 2,340 8.0 17.2°
Sets 23:39:08 0° 172° (S) 3,323 8.8 17.8°
